Time,TemperatureF,DewpointF,PressureIn,WindDirection,WindDirectionDegrees,WindSpeedMPH,WindSpeedGustMPH,Humidity,HourlyPrecipIn,Conditions,Clouds,dailyrainin,SoftwareType,DateUTC
2016-07-29 00:00:00,70.2,18.8,29.96,NE,39,0.0,0.0,14,0.00,,OVC140,0.00,VWS V15.00,2016-07-29 07:00:00,
2016-07-29 00:04:00,70.2,18.8,29.96,NE,39,0.0,0.0,14,0.00,,OVC140,0.00,VWS V15.00,2016-07-29 07:04:00,
2016-07-29 00:09:00,70.0,18.6,29.96,NE,39,0.0,0.0,14,0.00,,OVC140,0.00,VWS V15.00,2016-07-29 07:09:00,
2016-07-29 00:14:00,69.8,18.5,29.96,NE,39,0.0,0.0,14,0.00,,OVC140,0.00,VWS V15.00,2016-07-29 07:14:00,
2016-07-29 00:19:00,69.6,20.0,29.96,NE,39,0.0,0.0,15,0.00,,OVC140,0.00,VWS V15.00,2016-07-29 07:19:00,
2016-07-29 00:24:00,69.6,20.0,29.96,NE,39,0.0,0.0,15,0.00,,OVC140,0.00,VWS V15.00,2016-07-29 07:24:00,
2016-07-29 00:29:00,69.3,19.7,29.96,NE,39,0.0,0.0,15,0.00,,OVC140,0.00,VWS V15.00,2016-07-29 07:29:00,
2016-07-29 00:34:00,69.1,19.5,29.96,NE,39,0.0,0.0,15,0.00,,OVC140,0.00,VWS V15.00,2016-07-29 07:34:00,
2016-07-29 00:39:00,68.7,19.2,29.96,NE,39,3.1,3.1,15,0.00,,OVC140,0.00,VWS V15.00,2016-07-29 07:39:00,
2016-07-29 00:44:00,68.4,19.0,29.96,SW,214,0.0,2.2,15,0.00,,OVC140,0.00,VWS V15.00,2016-07-29 07:44:00,
2016-07-29 00:49:00,68.2,18.8,29.96,SW,214,0.0,0.0,15,0.00,,OVC140,0.00,VWS V15.00,2016-07-29 07:49:00,
2016-07-29 00:54:00,67.8,18.5,29.96,SW,214,0.0,0.0,15,0.00,,OVC140,0.00,VWS V15.00,2016-07-29 07:54:00,
2016-07-29 00:59:00,67.8,18.5,29.96,SW,214,0.0,0.0,15,0.00,,OVC140,0.00,VWS V15.00,2016-07-29 07:59:00,
2016-07-29 01:04:00,67.6,18.4,29.96,SW,214,0.0,0.0,15,0.00,,OVC140,0.00,VWS V15.00,2016-07-29 08:04:00,
2016-07-29 01:09:00,67.5,18.2,29.96,SW,214,0.0,0.0,15,0.00,,OVC140,0.00,VWS V15.00,2016-07-29 08:09:00,
2016-07-29 01:14:00,67.6,18.4,29.96,SW,214,0.0,0.0,15,0.00,,OVC140,0.00,VWS V15.00,2016-07-29 08:14:00,
2016-07-29 01:19:00,67.8,18.5,29.96,SW,214,0.0,0.0,15,0.00,,OVC140,0.00,VWS V15.00,2016-07-29 08:19:00,
2016-07-29 01:24:00,67.8,18.5,29.96,ESE,112,0.0,2.2,15,0.00,,OVC140,0.00,VWS V15.00,2016-07-29 08:24:00,
2016-07-29 01:29:00,67.6,18.4,29.96,ESE,116,0.0,2.2,15,0.00,,OVC140,0.00,VWS V15.00,2016-07-29 08:29:00,
2016-07-29 01:34:00,67.3,18.1,29.96,ESE,116,0.0,0.0,15,0.00,,OVC140,0.00,VWS V15.00,2016-07-29 08:34:00,
2016-07-29 01:39:00,67.1,17.9,29.96,ESE,115,0.0,0.0,15,0.00,,OVC140,0.00,VWS V15.00,2016-07-29 08:39:00,
2016-07-29 01:44:00,66.9,17.8,29.96,ESE,116,0.0,0.0,15,0.00,,OVC140,0.00,VWS V15.00,2016-07-29 08:44:00,
2016-07-29 01:49:00,66.7,17.6,29.96,ESE,115,0.0,0.0,15,0.00,,OVC140,0.00,VWS V15.00,2016-07-29 08:49:00,
2016-07-29 01:54:00,66.6,17.5,29.96,ESE,115,0.0,0.0,15,0.00,,OVC140,0.00,VWS V15.00,2016-07-29 08:54:00,
2016-07-29 01:59:00,66.4,17.4,29.96,ESE,116,0.0,0.0,15,0.00,,OVC140,0.00,VWS V15.00,2016-07-29 08:59:00,
2016-07-29 02:04:00,66.2,17.2,29.96,ESE,116,0.0,0.0,15,0.00,,OVC140,0.00,VWS V15.00,2016-07-29 09:04:00,
2016-07-29 02:09:00,66.0,17.1,29.96,ESE,116,0.0,0.0,15,0.00,,OVC140,0.00,VWS V15.00,2016-07-29 09:09:00,
2016-07-29 02:14:00,66.0,17.1,29.96,ESE,116,0.0,0.0,15,0.00,,OVC140,0.00,VWS V15.00,2016-07-29 09:14:00,
2016-07-29 02:19:00,65.8,16.9,29.96,ESE,116,0.0,0.0,15,0.00,,OVC140,0.00,VWS V15.00,2016-07-29 09:19:00,
2016-07-29 02:24:00,65.8,16.9,29.93,ESE,116,0.0,0.0,15,0.00,,OVC140,0.00,VWS V15.00,2016-07-29 09:24:00,
2016-07-29 02:29:00,65.7,16.8,29.93,ESE,116,0.0,0.0,15,0.00,,OVC140,0.00,VWS V15.00,2016-07-29 09:29:00,
2016-07-29 02:34:00,65.7,16.8,29.93,ESE,116,0.0,0.0,15,0.00,,OVC140,0.00,VWS V15.00,2016-07-29 09:34:00,
2016-07-29 02:39:00,65.5,16.6,29.96,ESE,116,0.0,0.0,15,0.00,,OVC140,0.00,VWS V15.00,2016-07-29 09:39:00,
2016-07-29 02:44:00,65.3,16.5,29.96,ESE,115,0.0,0.0,15,0.00,,OVC140,0.00,VWS V15.00,2016-07-29 09:44:00,
2016-07-29 02:49:00,65.1,16.4,29.96,ESE,116,0.0,0.0,15,0.00,,OVC140,0.00,VWS V15.00,2016-07-29 09:49:00,
2016-07-29 02:54:00,64.9,16.2,29.96,ESE,116,0.0,0.0,15,0.00,,OVC140,0.00,VWS V15.00,2016-07-29 09:54:00,
2016-07-29 02:59:00,64.8,16.1,29.96,ESE,116,0.0,0.0,15,0.00,,OVC140,0.00,VWS V15.00,2016-07-29 09:59:00,
2016-07-29 03:04:00,64.4,15.8,29.96,ESE,116,0.0,0.0,15,0.00,,OVC140,0.00,VWS V15.00,2016-07-29 10:04:00,
2016-07-29 03:09:00,64.2,17.1,29.96,ESE,116,0.0,0.0,16,0.00,,OVC140,0.00,VWS V15.00,2016-07-29 10:09:00,
2016-07-29 03:14:00,64.0,17.0,29.96,ESE,116,0.0,0.0,16,0.00,,OVC140,0.00,VWS V15.00,2016-07-29 10:14:00,
2016-07-29 03:19:00,63.9,16.8,29.96,ESE,116,0.0,0.0,16,0.00,,OVC140,0.00,VWS V15.00,2016-07-29 10:19:00,
2016-07-29 03:24:00,63.9,16.8,29.96,ESE,115,0.0,0.0,16,0.00,,OVC140,0.00,VWS V15.00,2016-07-29 10:24:00,
2016-07-29 03:29:00,63.5,16.5,29.96,ESE,116,0.0,0.0,16,0.00,,OVC140,0.00,VWS V15.00,2016-07-29 10:29:00,
2016-07-29 03:34:00,63.5,16.5,29.96,ESE,116,0.0,0.0,16,0.00,,OVC140,0.00,VWS V15.00,2016-07-29 10:34:00,
2016-07-29 03:39:00,63.3,16.4,29.96,ESE,116,0.0,0.0,16,0.00,,OVC140,0.00,VWS V15.00,2016-07-29 10:39:00,
2016-07-29 03:44:00,63.1,16.2,29.96,ESE,116,0.0,0.0,16,0.00,,OVC140,0.00,VWS V15.00,2016-07-29 10:44:00,
2016-07-29 03:49:00,63.1,16.2,29.96,ESE,116,0.0,0.0,16,0.00,,OVC140,0.00,VWS V15.00,2016-07-29 10:49:00,
2016-07-29 03:54:00,63.0,16.1,29.96,ESE,116,0.0,0.0,16,0.00,,OVC140,0.00,VWS V15.00,2016-07-29 10:54:00,
2016-07-29 03:59:00,62.8,15.9,29.96,ESE,116,0.0,0.0,16,0.00,,OVC140,0.00,VWS V15.00,2016-07-29 10:59:00,
2016-07-29 04:04:00,62.6,15.8,29.96,ESE,116,0.0,0.0,16,0.00,,OVC140,0.00,VWS V15.00,2016-07-29 11:04:00,
2016-07-29 04:09:00,62.6,15.8,29.96,ESE,116,0.0,0.0,16,0.00,,OVC140,0.00,VWS V15.00,2016-07-29 11:09:00,
2016-07-29 04:14:00,62.4,15.7,29.96,ESE,116,0.0,0.0,16,0.00,,OVC140,0.00,VWS V15.00,2016-07-29 11:14:00,
2016-07-29 04:19:00,62.4,15.7,29.96,ESE,116,0.0,0.0,16,0.00,,OVC140,0.00,VWS V15.00,2016-07-29 11:19:00,